Regional Weather Roundup
Issued by NWS

Home | Current Version | Previous Version | Text Only | Print | Product List | Glossary On
Versions: 1 2 3 4 5 6 7 8 9 10 11 12 13 14 15 16 17 18 19 20 21 22 23 24 25 26 27 28 29 30 31 32 33 34 35 36 37 38 39 40 41 42 43 44 45 46 47 48 49 50
000
ASUS44 KJAN 251410
RWRMS

MISSISSIPPI HOURLY WEATHER ROUNDUP
NATIONAL WEATHER SERVICE JACKSON MS
800 AM CST SUN FEB 25 2018

NOTE: "FAIR: INDICATES FEW OR NO CLOUDS BELOW 12,000 FEET WITH NO
SIGNIFICANT WEATHER AND/OR OBSTRUCTIONS TO VISIBILITY.

MSZ001>002-007>008-010>013-018>021-025>028-034>036-251500-
NORTHWEST MISSISSIPPI

CITY           SKY/WX    TMP DP  RH WIND       PRES   REMARKS
BATESVILLE       N/A    N/A N/A N/A MISG        N/A
CLARKSDALE     SUNNY     48  43  81 N7        30.14R
CLEVELAND      FAIR      51  49  90 N6        30.12F
GREENWOOD      CLOUDY    54  53  97 S8        30.15R
GREENVILLE     FAIR      53  46  77 NE6       30.12S
OLIVE BRANCH   CLOUDY    45  45 100 N5        30.12R
TUNICA           N/A     45  37  76 N6        30.16R
WINONA         CLOUDY    51  51 100 SW3       30.14R
$$

MSZ003>006-009-014>017-022>024-029>033-037>039-251500-
NORTHEAST MISSISSIPPI

CITY           SKY/WX    TMP DP  RH WIND       PRES   REMARKS
ABERDEEN       DRIZZLE   54  54 100 SW5       30.15R
COLUMBUS AFB   LGT RAIN  54  54 100 SW6       30.14R
CORINTH        FAIR      50  45  81 N6        30.10S
GOLDN TRIANGLE LGT RAIN  52  51  97 S6        30.13R
STARKVILLE     RAIN      52  50  93 S6        30.15R
TUPELO         PTSUNNY   54  50  86 NW5       30.12R
$$

MSZ040-058-251500-
CENTRAL MISSISSIPPI

CITY           SKY/WX    TMP DP  RH WIND       PRES   REMARKS
JACKSON INTL   LGT RAIN  51  49  92 E6        30.11R
JACKSON HAWKNS LGT RAIN  52  50  93 SE6       30.13R
MADISON        FAIR      50  48  93 SE3       30.11R
MERIDIAN KEY   LGT RAIN  53  53 100 W3        30.17R
MERIDIAN NAS   CLOUDY    53  50  89 CALM      30.16R
RAYMOND        FAIR      52  50  93 E8G14     30.11F
VICKSBURG VKS    N/A    N/A N/A N/A MISG        N/A
$$

MSZ059>079-251500-
SOUTH MISSISSIPPI

CITY           SKY/WX    TMP DP  RH WIND       PRES   REMARKS
COLUMBIA       RAIN      55  54  94 CALM      30.21R
HATTIESBURG    LGT RAIN  56  55  97 CALM      30.18R
LAUREL           N/A     53  53 100 N3        30.18R
MCCOMB         LGT RAIN  54  51  90 VRB7      30.13S
NATCHEZ        LGT RAIN  51  49  92 E10       30.11S
PINE BELT      LGT RAIN  54  53  97 N8        30.17R
$$

MSZ080>082-251500-
COASTAL MISSISSIPPI

CITY           SKY/WX    TMP DP  RH WIND       PRES   REMARKS
BAY ST LOUIS   RAIN      70  68  94 W10       30.10R
BILOXI         FAIR      74  71  91 SW5       30.09R
PASCAGOULA     PTSUNNY   74  69  85 SW3       30.09R
GULFPORT       CLOUDY    74  72  93 CALM      30.08R
$$

LAZ007>009-015>016-023>026-251500-
NORTHEAST LOUISIANA

CITY           SKY/WX    TMP DP  RH WIND       PRES   REMARKS
BASTROP        FAIR      53  52  98 CALM      30.14R
TALLULAH/VBURG LGT RAIN  53  51  93 SE12      30.11R
VIDALIA        DRIZZLE   52  49  90 E9        30.11R
$$



USA.gov is the U.S. government's official web portal to all federal, state and local government web resources and services.